{"data":{"norad_id":39768,"epoch":"2026-05-25T00:10:36.684192Z","epoch_age_seconds":70261,"freshness":"FRESH","line1":"1 39768U 14029C   26145.00736903  .00001686  00000+0  16085-3 0  9998","line2":"2 39768  97.9053 258.2901 0007355  64.0504 296.1473 14.94688270650949","mean_motion":14.9468827,"eccentricity":0.0007355,"inclination_deg":97.9053,"raan_deg":258.2901,"arg_perigee_deg":64.0504,"mean_anomaly_deg":296.1473,"bstar":0.00016085,"rev_number":65094,"period_min":96.341158815677,"perigee_km":578.22033323029,"apogee_km":588.46066663269,"semimajor_km":6961.4774999315,"source":"CELESTRAK","updated_at":"2026-05-25T13:37:55.439138Z"}}